Location: Mohawk View
(42.7837°N, 73.7885°W)
Time: 08:45:39
(UTC+00:00)

USA 281 - Pass Details

Date: 17 June 2021
Orbit: 1078 x 1081 km, 106.0° (Epoch: 18 July)

Event Time Altitude Azimuth Distance (km) Brightness Sun altitude
Rises 08:12:37 0° 169° (S) 3,863 5.8 -9.9°
Reaches altitude 10° 08:15:12 10° 174° (S) 2,911 5.1 -9.5°
Maximum altitude 08:21:34 54° 251° (WSW) 1,296 3.4 -8.7°
Drops below altitude 10° 08:28:00 10° 328° (NNW) 2,930 5.6 -7.8°
Sets 08:30:36 0° 333° (NNW) 3,890 6.3 -7.5°
